Geostationary
NORAD ID: 33058
Int'l Code: 2008-030D
Perigee: 282.6 km
Apogee: 26,391.8 km
Inclination: 2.0 °
Period: 458.9 minutes
Semi major axis: 19708 km
Launch date: June 12, 2008
Source: France (FR)
Note: This is SATELLITE DEBRIS
Two Line Element Set (TLE):
1 33058U 08030D 13144.43173028 .00021943 00000-0 59363-2 0 3161
2 33058 001.9868 296.8498 6623953 071.1014 348.5967 03.13786070 45935
Source: AFSPC
NASA's NSSDC Master Catalog entry for ARIANE 5 DEB (SYLDA)